Home > Weather > Green Bay > Past weeks

Flag for USA Weather for the Past 2 Weeks in Green Bay, Wisconsin, USA

Now
44 °F

Mostly cloudy.


Feels Like: 38 °F
Forecast: 42 / 52 °F
Wind: 12 mph from North

Location: Austin Straubel International Airport

Current Time: May 4, 2016 at 9:13:06 AM

Latest Report: May 4, 2016 at 7:53 AM


Visibility: 10 mi

Pressure: 29.78 "Hg

Humidity: 76%

Dew Point: 37 °F

Location of Green BayLocation

Historic Weather in Green Bay — Graph

°F

Green Bay Temperature Yesterday

Maximum temperature yesterday: 70 °F (at 12:53 PM)
Minimum temperature yesterday: 43 °F (at 2:53 AM)
Average temperature yesterday: 56 °F

High & Low Weather Summary for the Past Weeks

 TemperatureHumidityPressure
High70 °F (May 3, 12:53 PM)97% (Apr 24, 9:53 PM)30.38 "Hg (Apr 24, 9:53 PM)
Low31 °F (Apr 27, 4:53 AM)29% (May 2, 4:53 PM)29.66 "Hg (Apr 25, 5:53 PM)
Average48 °F68%30.02 "Hg
* Reported Apr 19 7:53 AM — May 4 7:53 AM, Green Bay, Weather by CustomWeather, © 2016

Note: Actual official high and low records may vary slightly from our data, if they occured in-between our weather recording intervals... More about our weather records

Advertising

Green Bay Weather History for the Previous 24 Hours

Scroll right to see more
 ConditionsComfort  
Time TempWeatherWind HumidityBarometerVisibility
7:53 AM
Wed, May 4
44 °FMostly cloudy.12 mph76%29.78 "Hg10 mi
6:53 AM43 °FOvercast.12 mph76%29.77 "Hg10 mi
5:53 AM42 °FLight rain. Passing clouds.13 mph79%29.76 "Hg10 mi
4:53 AM42 °FLight rain. Passing clouds.13 mph79%29.74 "Hg10 mi
3:53 AM42 °FLight rain. Clear.13 mph82%29.73 "Hg10 mi
2:53 AM45 °FLight rain. Passing clouds.10 mph82%29.72 "Hg10 mi
1:53 AM47 °FLight rain. Mostly cloudy.13 mph86%29.71 "Hg10 mi
12:53 AM47 °FLight rain. Passing clouds.13 mph86%29.70 "Hg10 mi
11:53 PM
Tue, May 3
47 °FLight rain. Clear.8 mph90%29.69 "Hg10 mi
10:53 PM48 °FLight rain. Clear.No wind93%29.68 "Hg10 mi
9:53 PM50 °FLight rain. Partly cloudy.No wind89%29.69 "Hg10 mi
8:53 PM52 °FRain. Fog.8 mph86%29.72 "Hg6 mi
7:53 PM54 °FOvercast.6 mph74%29.69 "Hg10 mi
6:53 PM58 °FOvercast.25 mph56%29.70 "Hg10 mi
5:53 PM64 °FMore clouds than sun.17 mph37%29.68 "Hg10 mi
4:53 PM66 °FOvercast.10 mph31%29.66 "Hg10 mi
3:53 PM68 °FBroken clouds.17 mph31%29.67 "Hg10 mi
2:53 PM69 °FPassing clouds.13 mph30%29.70 "Hg9 mi
1:53 PM68 °FPassing clouds.18 mph30%29.73 "Hg10 mi
12:53 PM70 °FPassing clouds.17 mph29%29.77 "Hg10 mi
11:53 AM69 °FPassing clouds.16 mph30%29.80 "Hg10 mi
10:53 AM66 °FSunny.16 mph37%29.83 "Hg10 mi
9:53 AM63 °FSunny.12 mph43%29.85 "Hg10 mi
Weather by CustomWeather, © 2016

See weather overviewHow to use our weather pages